This demonstration page uses our WeatherBlox Daily Observations layout. Learn more.

Left ArrowRight Arrow

Hourly Observations for April 9, 2021

Temp ( °F °C ) Dew Point ( °F °C ) Humidity (%) Winds ( mph kmh ) Pressure ( in mb ) Visibility ( mi km ) Precip ( " mm )
12:53 am 00:53 Clear 24 -4.4 19 -7.2 81 81 SW 9 15 30.12 1020 10 16 0.00 0.00
1:53 am 01:53 Clear 23 -5 19 -7.2 85 85 WSW 7 11 30.13 1020 10 16 0.00 0.00
2:53 am 02:53 Clear 24 -4.4 20 -6.7 84 84 SW 7 11 30.13 1020 10 16 0.00 0.00
3:53 am 03:53 Clear 22 -5.6 19 -7.2 89 89 WSW 8 13 30.14 1021 10 16 0.00 0.00
4:53 am 04:53 Clear 24 -4.4 21 -6.1 88 88 SW 6 9 30.14 1021 10 16 0.00 0.00
5:53 am 05:53 Clear 23 -5 20 -6.7 88 88 WNW 5 7 30.13 1020 10 16 0.00 0.00
6:53 am 06:53 Sunny 21 -6.1 18 -7.8 88 88 Calm 30.12 1020 10 16 0.00 0.00
7:53 am 07:53 Sunny 30 -1.1 26 -3.3 85 85 WSW 6 9 30.11 1020 10 16 0.00 0.00
8:53 am 08:53 Sunny 38 3.3 25 -3.9 60 60 SW 21 33 30.09 1019 10 16 0.00 0.00
9:53 am 09:53 Sunny 42 5.6 23 -5 47 47 SW 22 35 30.07 1018 10 16 0.00 0.00
10:53 am 10:53 Sunny 47 8.3 21 -6.1 36 36 SW 24 39 30.04 1017 10 16 0.00 0.00
11:53 am 11:53 Sunny 50 10 18 -7.8 28 28 SW 13 20 30.01 1016 10 16 0.00 0.00
12:53 pm 12:53 Sunny 53 11.7 18 -7.8 25 25 WSW 18 30 29.96 1015 10 16 0.00 0.00
1:53 pm 13:53 Sunny 56 13.3 17 -8.3 22 22 SW 18 30 29.93 1013 10 16 0.00 0.00
2:53 pm 14:53 Sunny 58 14.4 15 -9.4 18 18 WSW 20 31 29.90 1012 10 16 0.00 0.00
3:53 pm 15:53 Sunny 58 14.4 14 -10 18 18 WSW 21 33 29.87 1012 10 16 0.00 0.00
4:53 pm 16:53 Sunny 58 14.4 14 -10 18 18 W 21 33 29.85 1011 10 16 0.00 0.00
5:53 pm 17:53 Sunny 57 13.9 15 -9.4 19 19 W 18 30 29.83 1010 10 16 0.00 0.00
6:53 pm 18:53 Sunny 57 13.9 16 -8.9 20 20 W 16 26 29.83 1010 10 16 0.00 0.00
7:53 pm 19:53 Sunny 50 10 18 -7.8 28 28 W 9 15 29.81 1010 10 16 0.00 0.00
8:53 pm 20:53 Clear 41 5 16 -8.9 36 36 SSW 8 13 29.81 1010 10 16 0.00 0.00
9:53 pm 21:53 Clear 38 3.3 17 -8.3 43 43 S 10 17 29.80 1009 10 16 0.00 0.00
10:53 pm 22:53 Clear 35 1.7 17 -8.3 48 48 W 5 7 29.77 1008 10 16 0.00 0.00
11:53 pm 23:53 Clear 35 1.7 17 -8.3 48 48 SW 10 17 29.76 1008 10 16 0.00 0.00

Powered by AerisWeather